Provo, UT

4:16 AM MDT on October 01, 2016 (GMT -0600)
Provo Municipal

Weather History for KPVU - October, 2011

Change the Weather History Date:

Monday, October 24, 2011

  Actual Average Record
Temperature  
Mean Temperature 54 °F -  
Max Temperature 71 °F 55 °F 78 °F (2014)
Min Temperature 37 °F 33 °F 24 °F (2001)
Degree Days  
Heating Degree Days 11    
Growing Degree Days 4 (Base 50)    
Moisture  
Dew Point 36 °F    
Average Humidity 58    
Maximum Humidity 87    
Minimum Humidity 29    
Precipitation  
Precipitation 0.00 in - - ()
Sea Level Pressure  
Sea Level Pressure 30.04 in    
Wind  
Wind Speed 5 mph (SSW)    
Max Wind Speed 16 mph    
Max Gust Speed 18 mph    
Visibility 12 miles    
Events      
Averages and records for this station are not official NWS values.
T = Trace of Precipitation, MM = Missing Value Source: NWS Daily Summary

Daily Weather History Graph

Daily Weather History Graph

Search for Another Location

Airport or City:

Trip Planner

Search our weather history database for the weather conditions in past years. The results will help you decide how hot, cold, wet, or windy it might be!

Date:

Astronomy

Oct. 24, 2011 Rise Set
Actual Time 7:47 AM MDT 6:34 PM MDT
Civil Twilight 7:19 AM MDT 7:02 PM MDT
Nautical Twilight 6:47 AM MDT 7:33 PM MDT
Astronomical Twilight 6:16 AM MDT 8:05 PM MDT
Moon 5:09 AM MDT (10/24) 5:01 PM MDT (10/24)
Length of Visible Light 11h 42m
Length of Day
10h 47m
Waning Crescent, 7% of the Moon is Illuminated
Oct 24
Waning Crescent
Oct 26
New
Nov 2
First Quarter
Nov 10
Full
Nov 18
Last Quarter

Hourly Weather History & Observations

Time (MDT) Temp. Windchill Dew Point Humidity Pressure Visibility Wind Dir Wind Speed Gust Speed Precip Events Conditions
12:15 AM 42.8 °F 41.1 °F 37.4 °F 81% 30.15 in 10.0 mi ESE 3.5 mph - N/A   Clear
12:35 AM 42.8 °F - 35.6 °F 76% 30.14 in 10.0 mi Calm Calm - N/A   Clear
12:55 AM 42.8 °F - 37.4 °F 81% 30.13 in 10.0 mi Calm Calm - N/A   Clear
1:15 AM 42.8 °F - 37.4 °F 81% 30.12 in 10.0 mi Calm Calm - N/A   Clear
1:55 AM 44.6 °F 43.1 °F 35.6 °F 71% 30.12 in 10.0 mi South 3.5 mph - N/A   Clear
4:15 AM 37.4 °F - 33.8 °F 87% 30.09 in 10.0 mi Calm Calm - N/A   Clear
4:55 AM 39.2 °F 37.0 °F 33.8 °F 81% 30.07 in 10.0 mi SW 3.5 mph - N/A   Clear
5:15 AM 44.6 °F 42.2 °F 33.8 °F 66% 30.08 in 10.0 mi South 4.6 mph - N/A   Clear
5:35 AM 37.4 °F 30.8 °F 33.8 °F 87% 30.07 in 10.0 mi East 9.2 mph - N/A   Clear
6:15 AM 44.6 °F 39.7 °F 33.8 °F 66% 30.08 in 10.0 mi SE 9.2 mph - N/A   Clear
6:35 AM 44.6 °F - 33.8 °F 66% 30.08 in 10.0 mi Calm Calm - N/A   Clear
6:50 AM 41.0 °F 37.1 °F 33.8 °F 76% 30.08 in 15.0 mi ENE 5.8 mph - N/A   Partly Cloudy
7:51 AM 44.6 °F - 28.4 °F 53% 30.08 in 15.0 mi Calm Calm - N/A   Partly Cloudy
8:55 AM 44.6 °F 42.2 °F 35.6 °F 71% 30.09 in 15.0 mi ENE 4.6 mph - N/A   Partly Cloudy
9:49 AM 51.8 °F - 37.4 °F 58% 30.08 in 15.0 mi East 4.6 mph - N/A   Partly Cloudy
10:47 AM 57.2 °F - 35.6 °F 44% 30.08 in 15.0 mi East 5.8 mph - N/A   Scattered Clouds
11:50 AM 66.2 °F - 35.6 °F 32% 30.05 in 15.0 mi SE 3.5 mph - N/A   Scattered Clouds
2:50 PM 71.6 °F - 37.4 °F 29% 29.96 in 15.0 mi SSW 11.5 mph - N/A   Mostly Cloudy
3:50 PM 69.8 °F - 37.4 °F 31% 29.95 in 15.0 mi SSW 11.5 mph - N/A   Mostly Cloudy
4:50 PM 68.0 °F - 39.2 °F 35% 29.94 in 15.0 mi SSW 9.2 mph - N/A   Mostly Cloudy
5:50 PM 66.2 °F - 39.2 °F 37% 29.93 in 15.0 mi Variable 5.8 mph - N/A   Mostly Cloudy
6:50 PM 59.0 °F - 37.4 °F 45% 29.93 in 15.0 mi Variable 5.8 mph - N/A   Mostly Cloudy
9:35 PM 60.8 °F - 37.4 °F 42% 29.97 in 10.0 mi West 9.2 mph - N/A   Mostly Cloudy
9:55 PM 59.0 °F - 37.4 °F 45% 29.96 in 10.0 mi WNW 6.9 mph - N/A   Mostly Cloudy
10:15 PM 57.2 °F - 39.2 °F 51% 29.97 in 10.0 mi NW 16.1 mph - N/A   Mostly Cloudy
10:35 PM 60.8 °F - 35.6 °F 39% 29.97 in 10.0 mi NW 10.4 mph - N/A   Mostly Cloudy
10:55 PM 59.0 °F - 35.6 °F 42% 29.98 in 10.0 mi NW 11.5 mph 18.4 mph N/A   Scattered Clouds
11:15 PM 57.2 °F - 41.0 °F 55% 29.99 in 10.0 mi NNW 15.0 mph - N/A   Scattered Clouds
11:35 PM 55.4 °F - 41.0 °F 58% 29.98 in 10.0 mi NW 15.0 mph - N/A   Mostly Cloudy